OpenBCM V1.08-5-g2f4a (Linux)

Packet Radio Mailbox

IZ3LSV

[San Dona' di P. JN]

 Login: GUEST





  
I0OJJ  > KEPS     11.09.25 01:45l 313 Lines 14851 Bytes #35 (0) @ AMSAT
BID : ORB25254.1
Read: GUEST
Subj: 2Line Orbital Elements 25254.AMSAT
Path: IZ3LSV<IK6IHL<IK7NXU<HB9ON<DK0WUE<PD0LPM<IR0AAB<I0OJJ
Sent: 250911/0025z @:I0OJJ.ITA.EU [Rome] obcm1.08-10-g596e
From: I0OJJ @ I0OJJ.ITA.EU (Gustavo)
To:   KEPS @ AMSAT
X-Info: This message was generated automatically


QST de W1STR

AMSAT Orbital Elements for Amateur Satellites in TLE Format
From Orbital Analysis Office
New England Sci-Tech STEM Education Center
Natick MA September 11, 2025
To all radio amateurs


These element sets describe the orbits of various satellites 
in use by the amateur radio community. For details see:
www.amsat.org/keplerian-elements-formats/

A daily update of element sets is available at:
www.amsat.org/tle/daily-bulletin.txt
or without bulletin text:
www.amsat.org/tle/dailytle.txt


AO-07
1 07530U 74089B   25252.89416203 -.00000041  00000-0  31651-4 0  9998
2 07530 101.9979 258.1523 0011981 307.3936 121.0556 12.53691462325391
UO-11
1 14781U 84021B   25253.37371614  .00001608  00000-0  17384-3 0  9996
2 14781  97.7647 217.9662 0008784  39.4935 320.6921 14.89653715215455
AO-27
1 22825U 93061C   25253.43464061  .00000096  00000-0  53910-4 0  9990
2 22825  98.7283 315.4163 0008131 193.6327 166.4637 14.30827235666999
FO-29
1 24278U 96046B   25253.39433617 -.00000010  00000-0  22805-4 0  9994
2 24278  98.5596 135.0159 0350870 102.0580 262.0101 13.53253435435323
NOAA-15
1 25338U 98030A   25253.36602162  .00000131  00000-0  71262-4 0  9991
2 25338  98.5324 276.2508 0011462  88.1277 272.1217 14.27014588421381
GO-32
1 25397U 98043D   25253.34912957  .00000065  00000-0  48387-4 0  9992
2 25397  98.9806 234.4465 0000762 356.1624   3.9548 14.24337462411492
ISS
1 25544U 98067A   25253.41957898  .00007229  00000-0  13349-3 0  9991
2 25544  51.6328 244.6218 0004204 323.0394  37.0305 15.50221013528382
NO-44
1 26931U 01043C   25253.41356503  .00000137  00000-0  82420-4 0  9994
2 26931  67.0487 247.8077 0007034 275.4807  84.5493 14.31775751250390
SO-50
1 27607U 02058C   25252.54416652  .00001374  00000-0  18562-3 0  9996
2 27607  64.5514 276.6077 0065797 314.6314  44.9436 14.81866347222857
CO-55
1 27844U 03031E   25253.28659450  .00000310  00000-0  15391-3 0  9994
2 27844  98.6789 260.3769 0008426 280.1492  79.8736 14.24064073151832
CO-57
1 27848U 03031J   25252.99740835  .00000232  00000-0  12145-3 0  9990
2 27848  98.6818 260.0266 0008492 300.9193  59.1150 14.23388854151511
RS-22
1 27939U 03042A   25253.43280060  .00001075  00000-0  17731-3 0  9994
2 27939  98.3365  65.1861 0012563  77.1439   7.0725 14.72572768174362
CO-58
1 28895U 05043F   25253.35832171  .00001603  00000-0  26735-3 0  9997
2 28895  98.2631  38.9507 0014668  17.6471 342.5242 14.71325421 60587
CO-65
1 32785U 08021C   25253.56387904  .00003848  00000-0  27291-3 0  9992
2 32785  97.7947 225.5157 0007570 253.9262 106.1131 15.05357002943068
CO-66
1 32791U 08021J   25253.41244415  .00011897  00000-0  53981-3 0  9990
2 32791  97.7364 235.7006 0003727 162.5987 197.5376 15.20965948944598
RS-30
1 32953U 08025A   25253.59662734  .00000040  00000-0  21760-3 0  9999
2 32953  82.5072 169.3452 0018357 199.9743 160.0620 12.43168045784956
NOAA-19
1 33591U 09005A   25253.36495973  .00000095  00000-0  74529-4 0  9993
2 33591  98.9894 318.5569 0014797 101.4331 258.8504 14.13405496854958
SRMSAT
1 37841U 11058D   25253.42914894  .00000406  00000-0  76797-4 0  9996
2 37841  19.9727 312.6705 0011842   7.1349  97.0784 14.11462707718244
ZACUBE-1
1 39417U 13066B   25253.29432554  .00005505  00000-0  46779-3 0  9992
2 39417  97.7882 209.9014 0045777 101.8915 258.7445 14.97460518638789
Delfi-N3xt
1 39428U 13066N   25253.23907030  .00008381  00000-0  82789-3 0  9990
2 39428  97.8288 169.8905 0084732  55.9569 304.9657 14.89495681632865
GOMX-1
1 39430U 13066Q   25253.53845957  .00001762  00000-0  27864-3 0  9994
2 39430  97.6730 106.4744 0130267 254.7385 103.9389 14.67981352628861
LO-74
1 39440U 13066AA  25253.26966034  .00003932  00000-0  39396-3 0  9999
2 39440  97.8550 197.2503 0059609 233.0472 126.5279 14.90641394635246
AO-73
1 39444U 13066AE  25253.36078253  .00008036  00000-0  58085-3 0  9997
2 39444  97.7927 215.7380 0043571  74.5140 286.0890 15.03551143637528
DTUSAT-2
1 40030U 14033W   25253.53589905  .00006356  00000-0  40052-3 0  9993
2 40030  98.0653 229.9700 0011149 103.8541 256.3928 15.09482398610413
EO-80
1 40032U 14033Y   25253.35249398  .00008088  00000-0  50730-3 0  9992
2 40032  98.0530 229.3024 0009919  56.1261 304.0908 15.09568368610368
LILACSAT-2
1 40908U 15049K   25253.59911795  .00011043  00000-0  26913-3 0  9996
2 40908  97.5025 276.3084 0009158 172.9042 187.2336 15.41042636552542
IO-86
1 40931U 15052B   25151.18580175  .00001241  00000-0  78118-4 0  9996
2 40931   6.0006  24.0987 0012733 338.8432  21.1169 14.78805930523159
Horyu-4
1 41340U 16012D   25253.36476220  .00031141  00000-0  72203-3 0  9996
2 41340  30.9956 226.2050 0006499 297.0384  62.9599 15.41155057527091
Lapan A3
1 41603U 16040E   25253.62410227  .00003014  00000-0  10463-3 0  9991
2 41603  97.1414 254.6342 0009021 302.8445  57.1928 15.30489199512016
CAS-2T
1 41847U 16066G   25253.21206285  .00001002  00000-0  15260-3 0  9996
2 41847  98.4134 326.8517 0344150 258.1681  98.0726 14.43703811464384
CAS-4B
1 42759U 17034B   25253.64637479  .00161257  00000-0  75550-3 0  9992
2 42759  43.0005 121.3299 0023575 235.4400 124.4247 15.81562209457232
CAS-4A
1 42761U 17034D   25253.62995472  .00203454  00000-0  80319-3 0  9998
2 42761  43.0034 117.0287 0024073 241.4990 118.3458 15.85019183457262
TechnoSat
1 42829U 17042E   25253.44698831  .00002666  00000-0  20551-3 0  9995
2 42829  97.4018  57.7852 0016590 335.4534  24.5900 15.02322565444663
AO-91
1 43017U 17073E   25253.38210346  .00007718  00000-0  38573-3 0  9999
2 43017  97.5100 121.8276 0167560 209.6609 149.5038 15.06223298423178
S-Net D
1 43186U 18014G   25253.26919876  .00005467  00000-0  31574-3 0  9996
2 43186  97.5510 155.2270 0006954 265.5858  94.4579 15.12713413416384
S-Net B
1 43187U 18014H   25253.14352595  .00004766  00000-0  27589-3 0  9995
2 43187  97.5513 155.0789 0007670 260.1026  99.9339 15.12687961416365
S-Net A
1 43188U 18014J   25253.26925404  .00005467  00000-0  31567-3 0  9994
2 43188  97.5524 155.3658 0007532 260.6711  99.3668 15.12718869416382
S-Net C
1 43189U 18014K   25252.61695332  .00005251  00000-0  30357-3 0  9994
2 43189  97.5540 154.7499 0009161 254.6286 105.3933 15.12678961414836
Ten-Koh
1 43677U 18084G   25253.07274337  .00001808  00000-0  14676-3 0  9992
2 43677  98.0818  68.9956 0005862 319.4932  40.5854 15.00993450374116
PO-101
1 43678U 18084H   25253.60470922  .00001209  00000-0  10576-3 0  9990
2 43678  98.1099  73.3358 0008489 349.1435  10.9602 14.98745051374313
QO-100
1 43700U 18090A   25253.23707069  .00000142  00000-0  00000-0 0  9990
2 43700   0.0126 142.8231 0001340  57.1147 260.7372  1.00271148 24871
MinXSS-2
1 43758U 18099A   25252.72796247  .00016739  00000-0  60251-3 0  9997
2 43758  97.4934 319.1919 0011431 184.8089 175.3043 15.28605601371037
AO-95
1 43770U 18099N   25253.39775945  .00009510  00000-0  45887-3 0  9994
2 43770  97.4821 310.5090 0009095 243.8958 116.1341 15.18863010370633
SNUSat 2
1 43782U 18099AA  25253.45857204  .00006000  00000-0  31606-3 0  9998
2 43782  97.4503 306.5452 0011834 184.2136 175.9000 15.15914257370564
SnugLite
1 43784U 18099AC  25253.40743358  .00010326  00000-0  49322-3 0  9999
2 43784  97.4319 306.2615 0003821 166.5595 193.5742 15.19218365370726
ITASat 1
1 43786U 18099AE  25253.10916378  .00005076  00000-0  28226-3 0  9998
2 43786  97.4473 305.4297 0012770 242.7273 117.2658 15.14053028370456
EAGLET 1
1 43790U 18099AJ  25253.42792015  .00004093  00000-0  25688-3 0  9995
2 43790  97.4670 305.3715 0010920 225.3186 134.7154 15.09800775370075
ESEO
1 43792U 18099AL  25253.15609035  .00001478  00000-0  11427-3 0  9996
2 43792  97.4363 297.1089 0011670 203.6990 156.3700 15.02924484369727
JO-97
1 43803U 18099AX  25253.43151205  .00011080  00000-0  47490-3 0  9990
2 43803  97.4569 311.7561 0007757 169.5492 190.5907 15.22903205370893
Suomi 100
1 43804U 18099AY  25253.20958573  .00009375  00000-0  43623-3 0  9997
2 43804  97.4632 310.5477 0012272 178.3237 181.8041 15.20091325370768
ISAT
1 43879U 18111D   25253.33836616  .00025794  00000-0  79339-3 0  9997
2 43879  97.5874 169.9649 0006329 208.5030 151.5867 15.33638512367898
UWE-4
1 43880U 18111E   25253.19296365  .00018095  00000-0  64975-3 0  9990
2 43880  97.5822 167.5923 0008945 236.2867 123.7521 15.28694001367767
Sparrow
1 43881U 18111F   25253.30449906  .00028007  00000-0  82132-3 0  9994
2 43881  97.6038 173.1927 0003248 258.1431 101.9448 15.35146390367998
Prox-1
1 44339U 19036A   25253.14111896  .00010062  00000-0  12111-2 0  9997
2 44339  23.9958 172.9992 0006692  48.0418 312.0649 14.81832556331755
Taurus 1
1 44530U 19059C   25253.66654801  .00005821  00000-0  10477-2 0  9990
2 44530  98.6175  37.5955 0009765 107.9039 252.3229 14.66967110317584
Duchifat 3
1 44854U 19089C   25253.34916432  .00081128  00000-0  11111-2 0  9998
2 44854  36.9373 121.7693 0008063 321.9520  38.0670 15.56198134317420
TO-108
1 44881U 19093C   25253.63822660  .00000855  00000-0  10447-3 0  9994
2 44881  97.7859 327.3213 0012349 287.8348  72.1520 14.85780554309895
FloripaSat 1
1 44885U 19093G   25253.60696413  .00005144  00000-0  42411-3 0  9992
2 44885  97.8173 341.4428 0007846 253.4229 106.6132 14.99461063310684
RS-44
1 44909U 19096E   25253.27682382  .00000047  00000-0  13489-3 0  9995
2 44909  82.5254 165.7067 0218546  78.8457 283.7128 12.79743326266549
UPMSat 2
1 46276U 20061E   25253.25361348  .00222324  00000-0  79564-3 0  9992
2 46276  97.2298 331.7333 0003065 221.1381 138.9661 15.88260639280067
SALSAT
1 46495U 20068K   25252.90747453  .00006760  00000-0  28164-3 0  9992
2 46495  97.8697 235.3252 0010621 190.7153 169.3858 15.24031080272582
